This demonstration page uses our WeatherBlox Daily Observations layout. Learn more.

Left ArrowRight Arrow

39.51506, -84.39828

Hourly Observations for February 8, 2019

Temp ( °F °C ) Dew Point ( °F °C ) Humidity (%) Winds ( mph kmh ) Pressure ( in mb ) Visibility ( mi km ) Precip ( " mm )
12:15 am 00:15 Cloudy 35 1.4 29 -1.7 80 80 WSW 18 30 30.06 1018 10 16 0.00 0.00
12:35 am 00:35 Clear 33 0.7 26 -3.5 74 74 WSW 24 39 30.08 1019 10 16 0.00 0.00
12:55 am 00:55 Cloudy 32 0.1 25 -3.9 75 75 W 14 22 30.09 1019 10 16 0.00 0.00
1:15 am 01:15 Cloudy 32 -0.1 25 -3.8 76 76 WSW 16 26 30.12 1020 10 16 0.00 0.00
1:35 am 01:35 Cloudy 31 -0.8 23 -4.9 74 74 W 23 37 30.16 1021 10 16 0.00 0.00
1:55 am 01:55 Partly Cloudy 28 -2 20 -6.6 71 71 W 21 33 30.18 1022 10 16 0.00 0.00
2:15 am 02:15 Cloudy 28 -2.3 20 -6.6 73 73 WNW 16 26 30.19 1022 10 16 0.00 0.00
2:35 am 02:35 Cloudy 28 -2.4 20 -6.7 73 73 W 16 26 30.21 1023 10 16 0.00 0.00
2:55 am 02:55 Cloudy 28 -2.4 21 -6.2 75 75 W 15 24 30.20 1023 10 16 0.00 0.00
3:15 am 03:15 Cloudy 27 -3 17 -8.2 68 68 W 22 35 30.21 1023 10 16 0.00 0.00
3:35 am 03:35 Cloudy 26 -3.4 17 -8.3 69 69 W 20 31 30.23 1024 10 16 0.00 0.00
3:55 am 03:55 Partly Cloudy 26 -3.5 16 -8.9 67 67 W 23 37 30.25 1024 10 16 0.00 0.00
4:55 am 04:55 Cloudy 24 -4.6 15 -9.3 70 70 W 16 26 30.30 1026 10 16 0.00 0.00
5:15 am 05:15 Cloudy 24 -4.7 15 -9.6 69 69 WSW 16 26 30.31 1026 10 16 0.00 0.00
5:35 am 05:35 Partly Cloudy 22 -5.4 13 -10.8 66 66 W 20 31 30.33 1027 10 16 0.00 0.00
5:55 am 05:55 Clear 21 -6 11 -11.4 66 66 W 14 22 30.35 1028 10 16 0.00 0.00
6:15 am 06:15 Mostly Cloudy 21 -5.9 12 -10.9 68 68 W 13 20 30.36 1028 10 16 0.00 0.00
6:35 am 06:35 Cloudy with Light Snow 22 -5.7 13 -10.5 69 69 W 8 13 30.37 1028 10 16 0.00 0.00
6:55 am 06:55 Cloudy with Light Snow 22 -5.5 14 -10.2 70 70 W 14 22 30.38 1029 10 16 0.00 0.00
7:15 am 07:15 Cloudy 22 -5.8 12 -11.2 66 66 W 17 28 30.40 1030 10 16 0.00 0.00
7:35 am 07:35 Mostly Cloudy with Light Snow 21 -6 12 -11.2 67 67 W 14 22 30.41 1030 10 16 0.00 0.00
7:55 am 07:55 Cloudy with Light Snow 22 -5.8 13 -10.3 71 71 WSW 18 30 30.42 1030 10 16 0.00 0.00
8:15 am 08:15 Windy with Snow Likely 21 -6.1 13 -10.6 71 71 WSW 21 33 30.44 1031 10 16 0.00 0.00
8:35 am 08:35 Windy with Snow Likely 20 -6.6 10 -12.1 65 65 WSW 21 33 30.46 1032 10 16 0.00 0.00
8:55 am 08:55 Cloudy 21 -6.2 10 -12.4 62 62 W 20 31 30.47 1032 10 16 0.00 0.00
9:15 am 09:15 Mostly Cloudy 20 -6.6 9 -12.7 62 62 W 16 26 30.49 1033 10 16 0.00 0.00
9:35 am 09:35 Cloudy 21 -6 11 -11.7 64 64 W 15 24 30.49 1033 10 16 0.00 0.00
9:55 am 09:55 Cloudy 21 -6.2 10 -12.1 63 63 W 22 35 30.50 1033 10 16 0.00 0.00
10:15 am 10:15 Cloudy 21 -6 10 -12.1 62 62 WSW 22 35 30.51 1033 10 16 0.00 0.00
10:35 am 10:35 Partly Cloudy 22 -5.6 10 -12.3 60 60 W 21 33 30.53 1034 10 16 0.00 0.00
10:55 am 10:55 Mostly Cloudy 22 -5.5 10 -12.1 60 60 W 14 22 30.53 1034 10 16 0.00 0.00
11:15 am 11:15 Mostly Cloudy 23 -4.8 11 -11.5 60 60 WSW 17 28 30.54 1034 10 16 0.00 0.00
11:35 am 11:35 Partly Cloudy 22 -5.6 9 -12.6 58 58 W 16 26 30.55 1035 10 16 0.00 0.00
11:55 am 11:55 Partly Cloudy 23 -4.9 11 -11.9 58 58 W 13 20 30.56 1035 10 16 0.00 0.00
12:15 pm 12:15 Partly Cloudy 24 -4.3 11 -11.8 56 56 W 17 28 30.56 1035 10 16 0.00 0.00
12:35 pm 12:35 Mostly Cloudy 24 -4.5 10 -12.2 55 55 W 17 28 30.56 1035 10 16 0.00 0.00
12:55 pm 12:55 Mostly Cloudy 24 -4.3 10 -12 55 55 W 16 26 30.56 1035 10 16 0.00 0.00
1:15 pm 13:15 Partly Cloudy 25 -4.1 10 -12.3 53 53 WSW 17 28 30.57 1035 10 16 0.00 0.00
1:35 pm 13:35 Mostly Cloudy 26 -3.2 11 -11.6 53 53 W 21 33 30.56 1035 10 16 0.00 0.00
1:55 pm 13:55 Mostly Cloudy 25 -3.9 11 -11.7 55 55 W 16 26 30.57 1035 10 16 0.00 0.00
2:15 pm 14:15 Mostly Cloudy 26 -3.4 10 -12 52 52 W 15 24 30.57 1035 10 16 0.00 0.00
2:35 pm 14:35 Partly Cloudy 24 -4.4 10 -12.1 55 55 W 16 26 30.57 1035 10 16 0.00 0.00
2:55 pm 14:55 Mostly Cloudy 25 -3.7 11 -11.5 55 55 WNW 14 22 30.58 1035 10 16 0.00 0.00
3:15 pm 15:15 Partly Cloudy 26 -3.4 11 -11.5 54 54 W 20 31 30.58 1035 10 16 0.00 0.00
3:35 pm 15:35 Mostly Cloudy 26 -3.6 11 -11.4 55 55 W 13 20 30.59 1036 10 16 0.00 0.00
3:55 pm 15:55 Cloudy 24 -4.4 11 -11.9 56 56 W 13 20 30.60 1036 10 16 0.00 0.00
4:15 pm 16:15 Mostly Cloudy 26 -3.5 11 -11.5 54 54 WNW 13 20 30.60 1036 10 16 0.00 0.00
4:35 pm 16:35 Mostly Cloudy 25 -3.7 11 -11.9 53 53 W 16 26 30.61 1036 10 16 0.00 0.00
4:55 pm 16:55 Partly Cloudy 24 -4.7 10 -12 57 57 W 15 24 30.61 1037 10 16 0.00 0.00
5:15 pm 17:15 Partly Cloudy 24 -4.7 10 -12.2 56 56 W 15 24 30.62 1037 10 16 0.00 0.00
5:35 pm 17:35 Partly Cloudy 23 -4.9 10 -12.3 57 57 W 16 26 30.63 1037 10 16 0.00 0.00
5:55 pm 17:55 Partly Cloudy 22 -5.3 10 -12 60 60 W 16 26 30.64 1038 10 16 0.00 0.00
6:15 pm 18:15 Mostly Cloudy 22 -5.5 10 -12.4 59 59 W 15 24 30.65 1038 10 16 0.00 0.00
6:35 pm 18:35 Clear 22 -5.8 10 -12.5 60 60 W 9 15 30.67 1039 10 16 0.00 0.00
7:15 pm 19:15 Clear 21 -6.1 10 -12.3 62 62 W 12 19 30.69 1039 10 16 0.00 0.00
7:35 pm 19:35 Clear 21 -6.3 10 -12.3 63 63 W 12 19 30.69 1039 10 16 0.00 0.00
7:55 pm 19:55 Clear 21 -6.3 10 -12.5 62 62 W 10 17 30.71 1040 10 16 0.00 0.00
8:15 pm 20:15 Partly Cloudy 20 -6.5 10 -12.2 64 64 W 9 15 30.73 1041 10 16 0.00 0.00
8:35 pm 20:35 Clear 20 -6.7 9 -12.7 63 63 W 10 17 30.73 1041 10 16 0.00 0.00
8:55 pm 20:55 Mostly Cloudy 20 -6.8 10 -12.5 64 64 W 7 11 30.75 1041 10 16 0.00 0.00
9:15 pm 21:15 Clear 19 -7 9 -12.7 64 64 W 8 13 30.76 1042 10 16 0.00 0.00
9:35 pm 21:35 Clear 19 -7.2 9 -12.9 64 64 W 8 13 30.78 1042 10 16 0.00 0.00
9:55 pm 21:55 Clear 19 -7.3 9 -13 64 64 W 8 13 30.78 1042 10 16 0.00 0.00
10:15 pm 22:15 Clear 19 -7.4 9 -12.9 65 65 W 7 11 30.79 1043 10 16 0.00 0.00
10:35 pm 22:35 Clear 18 -7.6 9 -12.7 67 67 W 6 9 30.79 1043 10 16 0.00 0.00
10:55 pm 22:55 Clear 18 -7.8 10 -12.3 70 70 WNW 6 9 30.80 1043 10 16 0.00 0.00
11:15 pm 23:15 Clear 18 -7.8 9 -12.7 68 68 WNW 6 9 30.80 1043 10 16 0.00 0.00
11:35 pm 23:35 Clear 18 -8 9 -12.7 69 69 WNW 5 7 30.80 1043 10 16 0.00 0.00
11:55 pm 23:55 Clear 17 -8.1 8 -13.2 67 67 WNW 10 17 30.81 1043 10 16 0.00 0.00

Powered by AerisWeather